Weather History for CYUX - October, 2011

Change the Weather History Date:

Saturday, October 22, 2011

  Actual Average Record
Temperature  
Mean Temperature 14 °F -  
Max Temperature 16 °F 19 °F 33 °F (2010)
Min Temperature 12 °F 8 °F -9 °F (2014)
Degree Days  
Heating Degree Days 51    
Moisture  
Dew Point 11 °F    
Average Humidity 85    
Maximum Humidity 93    
Minimum Humidity 73    
Precipitation  
Precipitation 0.00 in - - ()
Sea Level Pressure  
Sea Level Pressure 29.77 in    
Wind  
Wind Speed 23 mph ()    
Max Wind Speed 34 mph    
Max Gust Speed 40 mph    
Visibility 5.8 miles    
Events Snow    
Averages and records for this station are not official NWS values.
T = Trace of Precipitation, MM = Missing Value Source: Averaged Metar Reports

Daily Weather History Graph

Daily Weather History Graph

Search for Another Location

Airport or City:

Trip Planner

Search our weather history database for the weather conditions in past years. The results will help you decide how hot, cold, wet, or windy it might be!

Date:

Astronomy

Oct. 22, 2011 Rise Set
Actual Time 8:59 AM EDT 5:18 PM EDT
Civil Twilight 7:57 AM EDT 6:19 PM EDT
Nautical Twilight 6:50 AM EDT 7:26 PM EDT
Astronomical Twilight 5:42 AM EDT 8:33 PM EDT
Moon 1:32 AM EDT (10/22) 4:32 PM EDT (10/22)
Length of Visible Light 10h 22m
Length of Day
8h 18m
Waning Crescent, 24% of the Moon is Illuminated
Oct 22
Waning Crescent
Oct 26
New
Nov 2
First Quarter
Nov 10
Full
Nov 18
Last Quarter

Hourly Weather History & Observations

Time (EDT) Temp. Windchill Dew Point Humidity Pressure Visibility Wind Dir Wind Speed Gust Speed Precip Events Conditions
12:00 AM 14.0 °F -2.5 °F 10.4 °F 86% 29.89 in 9.0 mi NE 17.3 mph - N/A Snow Light Snow
12:16 AM 14.0 °F -2.0 °F 8.6 °F 79% 29.88 in 9.0 mi ENE 16.1 mph 23.0 mph N/A   Overcast
12:27 AM 14.0 °F -3.0 °F 10.4 °F 86% 29.88 in 7.0 mi NE 18.4 mph - N/A Snow Light Snow
12:51 AM 14.0 °F -2.0 °F 8.6 °F 79% 29.88 in 6.0 mi ENE 16.1 mph 21.9 mph N/A   Overcast
12:54 AM 14.0 °F -2.0 °F 8.6 °F 79% 29.88 in 9.0 mi NE 16.1 mph 21.9 mph N/A Snow Light Snow
1:23 AM 14.0 °F -2.0 °F 8.6 °F 79% 29.87 in 9.0 mi NE 16.1 mph - N/A   Overcast
1:29 AM 14.0 °F -2.0 °F 10.4 °F 86% 29.87 in 9.0 mi NE 16.1 mph 21.9 mph N/A Snow Light Snow
1:51 AM 14.0 °F -4.7 °F 10.4 °F 86% 29.87 in 2.5 mi ENE 23.0 mph 31.1 mph N/A Snow Light Snow
2:00 AM 13 °F - 9 °F 76% 29.87 in 4 mi ENE 19.6 mph - -  
2:00 AM 14.0 °F -2.5 °F 8.6 °F 79% 29.87 in 4.0 mi ENE 17.3 mph 24.2 mph N/A Snow Light Snow
2:08 AM 14.0 °F -3.4 °F 10.4 °F 86% 29.87 in 2.1 mi ENE 19.6 mph - N/A Snow Light Snow
2:54 AM 14.0 °F -4.7 °F 12.2 °F 93% 29.85 in 1.2 mi NE 23.0 mph 28.8 mph N/A Snow Light Snow
3:00 AM 14.0 °F -5.5 °F 12.2 °F 93% 29.86 in 1.1 mi NE 25.3 mph - N/A Snow Light Snow
3:18 AM 14.0 °F -5.5 °F 12.2 °F 93% 29.84 in 1.5 mi NE 25.3 mph - N/A Snow Light Snow
3:19 AM 14.0 °F -6.2 °F 12.2 °F 93% 29.85 in 1.4 mi NE 27.6 mph - N/A Snow Light Snow
3:31 AM 14.0 °F -5.5 °F 12.2 °F 93% 29.84 in 1.8 mi NE 25.3 mph 36.8 mph N/A Snow Light Snow
3:33 AM 12.2 °F -7.9 °F 10.4 °F 92% 29.85 in 2.0 mi NE 25.3 mph 36.8 mph N/A   Overcast
3:56 AM 12.2 °F -7.9 °F 8.6 °F 85% 29.84 in 3.0 mi NE 25.3 mph 32.2 mph N/A   Overcast
3:59 AM 12.2 °F -7.5 °F 8.6 °F 85% 29.85 in 3.0 mi NE 24.2 mph 32.2 mph N/A   Overcast
4:00 AM 12.2 °F -7.5 °F 8.6 °F 85% 29.85 in 3.5 mi NE 24.2 mph 31.1 mph N/A   Overcast
5:00 AM 13 °F - 9 °F 75% 29.83 in 4 mi NE 26.5 mph - -   Overcast
5:00 AM 12.2 °F -8.9 °F 8.6 °F 85% 29.83 in 4.0 mi NE 28.8 mph - N/A   Overcast
6:00 AM 12.2 °F -8.9 °F 10.4 °F 92% 29.83 in 6.0 mi NE 28.8 mph 34.5 mph N/A   Overcast
6:36 AM 14.0 °F -6.2 °F 10.4 °F 86% 29.81 in 6.0 mi NE 27.6 mph 34.5 mph N/A Snow Light Snow
6:54 AM 14.0 °F -6.2 °F 8.6 °F 79% 29.81 in 5.0 mi NE 27.6 mph 36.8 mph N/A   Overcast
7:00 AM 14.0 °F -6.8 °F 8.6 °F 79% 29.81 in 5.0 mi NE 29.9 mph 36.8 mph N/A   Mostly Cloudy
7:32 AM 14.0 °F -7.1 °F 8.6 °F 79% 29.80 in 6.0 mi NE 31.1 mph 36.8 mph N/A Snow Light Snow
7:33 AM 14.0 °F -6.5 °F 8.6 °F 79% 29.80 in 6.0 mi NE 28.8 mph 36.8 mph N/A   Mostly Cloudy
7:55 AM 14.0 °F -7.1 °F 10.4 °F 86% 29.79 in 6.0 mi NE 31.1 mph - N/A Snow Light Snow
8:00 AM 15 °F - 10 °F 73% 29.80 in 6 mi NE 29.9 mph - -  
9:00 AM 15.8 °F -4.4 °F 10.4 °F 79% 29.79 in 10.0 mi NNE 29.9 mph 36.8 mph N/A Snow Light Snow
10:00 AM 15.8 °F -5.0 °F 10.4 °F 79% 29.78 in 8.0 mi NNE 32.2 mph - N/A Snow Light Snow
11:00 AM 15 °F - 12 °F 80% 29.76 in 7 mi NNE 31.1 mph - - Snow Light Snow
11:00 AM 15.8 °F -4.1 °F 12.2 °F 86% 29.76 in 7.0 mi NNE 28.8 mph 34.5 mph N/A Snow Light Snow
12:00 PM 15.8 °F -4.4 °F 12.2 °F 86% 29.75 in 10.0 mi NNE 29.9 mph - N/A Snow Light Snow
1:00 PM 15.8 °F -3.7 °F 12.2 °F 86% 29.73 in 12.0 mi North 27.6 mph 34.5 mph N/A Snow Low Drifting Snow
2:00 PM 16 °F - 12 °F 78% 29.72 in 7 mi NNE 28.8 mph - -  
2:00 PM 15.8 °F -4.1 °F 12.2 °F 86% 29.72 in 10.0 mi NNE 28.8 mph 34.5 mph N/A Snow Low Drifting Snow
3:00 PM 15.8 °F -4.4 °F 12.2 °F 86% 29.72 in 7.0 mi NNE 29.9 mph 35.7 mph N/A Snow Low Drifting Snow
4:00 PM 15.8 °F -3.4 °F 12.2 °F 86% 29.70 in 10.0 mi North 26.5 mph 34.5 mph N/A Snow Low Drifting Snow
5:00 PM 16 °F - 12 °F 77% 29.70 in 7 mi NNE 31.1 mph - - Snow Light Snow
5:00 PM 15.8 °F -4.7 °F 12.2 °F 86% 29.70 in 8.0 mi NNE 31.1 mph 36.8 mph N/A Snow Low Drifting Snow
6:00 PM 15.8 °F -4.7 °F 12.2 °F 86% 29.70 in 7.0 mi NNE 31.1 mph 38.0 mph N/A Snow Low Drifting Snow
7:00 PM 15.8 °F -5.2 °F 12.2 °F 86% 29.69 in 6.0 mi North 33.4 mph - N/A Snow Light Snow
8:00 PM 15 °F - 12 °F 81% 29.68 in 5 mi North 31.1 mph - -  
8:00 PM 15.8 °F -4.1 °F 12.2 °F 86% 29.68 in 5.0 mi North 28.8 mph 36.8 mph N/A Snow Light Snow
9:00 PM 15.8 °F -4.7 °F 12.2 °F 86% 29.67 in 6.0 mi North 31.1 mph 39.1 mph N/A Snow Light Snow
9:56 PM 15.8 °F -5.2 °F 14.0 °F 93% 29.65 in 6.0 mi North 33.4 mph - N/A   Mostly Cloudy
10:00 PM 15.8 °F -4.4 °F 12.2 °F 86% 29.66 in 6.0 mi North 29.9 mph 38.0 mph N/A   Overcast
10:19 PM 15.8 °F -5.2 °F 14.0 °F 93% 29.65 in 7.0 mi North 33.4 mph - N/A Snow Light Snow
10:28 PM 15.8 °F -5.5 °F 12.2 °F 86% 29.65 in 6.0 mi North 34.5 mph 40.3 mph N/A   Overcast
10:54 PM 15.8 °F -5.0 °F 12.2 °F 86% 29.64 in 5.0 mi North 32.2 mph - N/A Snow Light Snow
11:00 PM 15.8 °F -5.0 °F 12.2 °F 86% 29.65 in 5.0 mi North 32.2 mph 38.0 mph N/A Snow Light Snow
11:03 PM 15.8 °F -4.4 °F 12.2 °F 86% 29.63 in 5.0 mi North 29.9 mph 38.0 mph N/A   Overcast
11:18 PM 15.8 °F -5.2 °F 12.2 °F 86% 29.63 in 6.0 mi North 33.4 mph 39.1 mph N/A Snow Light Snow
11:24 PM 15.8 °F -5.0 °F 12.2 °F 86% 29.63 in 6.0 mi North 32.2 mph 39.1 mph N/A   Overcast
11:39 PM 14.0 °F -7.4 °F 12.2 °F 93% 29.62 in 5.0 mi North 32.2 mph 38.0 mph N/A Snow Light Snow
11:48 PM 15.8 °F -4.7 °F 12.2 °F 86% 29.63 in 5.0 mi North 31.1 mph 38.0 mph N/A   Overcast